Погода в Семлячики

Погода в Семлячики : погода сейчас, прогноз погоды и архив. Всё, что Вы хотите узнать о погоде в Семлячики!

Хотите узнать прогноз погоды в Семлячики? Тогда Вам сюда: Погода в Семлячики

Поиск расширенной информации на нашем сайте:

Другие новости

Новости СМИ2

Главная страница сайта

Новости сайта

03.07.2017

Напоминаем, что на нашем специализированном сайте Метеоцентр.Азия вы можете получить высокодетализированные автоматические прогнозы погоды по пунктам России, СНГ и мира в авиационном формате (включающие направление и скорость ветра, видимость, явления погоды, количество и форму облачности, нижнюю и верхнюю границу облачности).

Рекомендуем: перевозка пассажиров в Воронеже

Погода в Семлячики - сегодня

Время (UTC), дата Ветер
(°,м/с) 
Видим.   Явления Облачность Т
(°С)
Тd
(°С)
f(%) Тe
(°С)
Pmin
(гПа)
dP
(гПа)
Po
(мм)
O2
(г/м3)
Тmin Tmax R s Состояние
почвы
21 14.08.18 080 (В) 6{10}  10 км  слаб. ливневой дождь  10/10 300 м кучево-дожд. 
[Cb cap]
+11 +10.5 97 +12  1019.8  -0.1  762  293  +10.5      мокрая 
09 15.08.18 050 (СВ) 11-13{15}  20000 м  в посл. час дождь{снег}  10/10 600 м 
[Sc]
+11.1 +10.2 94 +10  1017.3  -0.3  761  293    +11.5  12     
18 15.08.18 340 (С) 4000 м  дымка  10/10 300 м 
[St]
+10.3 +8.9 91 +9  1013.7  -1.4  758  293           
03 16.08.18 340 (С) 10 км  слаб. ливневой дождь  10/10 600 м кучево-дожд. 
[Cb cap]
+11.8 +10.9 94 +15  1011.3  -0.1  756  290           
06 16.08.18 090 (В) 4000 м  ливневой дождь  10/10 300 м кучево-дожд. 
[Cb cap]
+11.5 +10.7 95 +13  1011.3  -0.1  756  290           
09 16.08.18 тихо ()   4000 м  ливневой дождь  10/10 300 м кучево-дожд. 
[Cb cap]
+10.6 +10.2 97 +12  1011.7  0.4  756  291    +12.7  32     
12 16.08.18 330 (СЗ) 20000 м  в посл. час ливневой дождь  10/10 300 м 
[St]
+10.4 +10 97 +13  1011.3  -0.4  756  292           
15 16.08.18 340 (С) 20000 м    10/10 300 м 
[St]
+11.1 +9.5 90 +11  1010.9  -0.4  756  291           
21 16.08.18 280 (З) 4{10}  20000 м    9/9 600 м 
[Sc]
+14.3 +9.1 71 +14  1011.9  1.5  757  288  +10.3      влажная 
00 17.08.18 140 (ЮВ) 20000 м    9/9 600 м 
[Sc]
+14.3 +10.7 79 +17  1013.2  1.3  758  288           
03 17.08.18 080 (В) 20000 м    6/6 600 м 
[Sc]
+14.4 +11.3 82 +18  1014.4  1.2  758  288           
06 17.08.18 070 (В) 20000 м    10/10 600 м 
[Sc]
+12.5 +10.5 88 +14  1015.7  1.2  759  291           
21 17.08.18 070 (В) 4{10}  20000 м  {ливн. осадки}  10/8 600 м кучево-дожд., средняя 
[Cb calv|Ac trans]
+11.3 +9.4 88 +11  1019.9  762  293  +10.5    0.5    влажная 
00 18.08.18 060 (СВ) 9-11{13}  20000 м  {ливн. осадки}  10/9 600 м кучево-дожд., средняя 
[Cb calv|Ac trans]
+11.6 +10 90 +11  1018.8  -1.1  762  293  +10.4         
09 18.08.18 050 (СВ) 9-11{12}  20000 м  {ливн. осадки}  10/10 600 м кучево-дожд. 
[Cb calv]
+12.2 +9.9 86 +11  1014.4  -1.8  758  291    +12.1     
21 18.08.18 020 (С) 4{11}  10 км  слаб. ливневой дождь  10/10 300 м кучево-дожд. 
[Cb cap]
+11.1 +9.8 92 +11  1003.2  -3.4  750  289  +10.1      мокрая 
03 19.08.18 040 (СВ) 1000 м  ливневой дождь  10/10 300 м кучево-дожд. 
[Cb cap]
+11.7 +11.3 97 +14  994.7  -6.6  744  285           
09 19.08.18 080 (В) 6{16}  0500 м  слаб. ливневой дождь{туман}  ?/?  
+11.6 +11.3 98 +13  990.7  -0.4  741  284    +11.8  33     
12 19.08.18 090 (В) 20000 м  {ливн. осадки, туман}  10/10 300 м 
[St]
+11.2 +10.9 98 +14  990.6  -0.1  741  285           
21 19.08.18 190 (Ю) 20000 м    10/10 600 м 
[Sc]
+11.9 +11.3 96 +16  988.3  -0.4  739  283  +11    0.0    влажная 
00 20.08.18 160 (Ю) 20000 м    10/10 600 м 
[Sc]
+12.5 +11.4 93 +16  987.6  -0.6  738  282           
03 20.08.18 150 (ЮВ) 20000 м    10/10 600 м 
[Sc]
+12.2 +11.2 94 +16  987.1  -0.6  738  282           
06 20.08.18 090 (В) 20000 м    10/10 600 м 
[Sc]
+12.5 +11.5 94 +17  987.4  0.3  738  282           
12 20.08.18 180 (Ю) 20000 м    10/10 600 м 
[Sc]
+12.5 +11.3 92 +17  988.8  0.1  739  283           
21 20.08.18 310 (СЗ) 8-13{17}  20000 м    3/0 средняя, верхняя 
[Ac trans|Ci fib]
+13.8 +5.5 57 +13  993.2  2.5  743  284  +11.1        сухая 
Время (UTC), дата Ветер
(°,м/с) 
Видим.   Явления Облачность Т
(°С)
Тd
(°С)
f(%) Тe
(°С)
Pmin
(гПа)
dP
(гПа)
Po
(мм)
O2
(г/м3)
Тmin Tmax R s Состояние
почвы

Для получения пояснительной информации подведите курсор к названию столбца.

ПОГОДА в Семлячики - архив

Всё, что Вы хотите узнать о погоде в Семлячики - удобно и подробно!

Выберите нужную дату (начиная с 1 января 2015* года) и нажмите кнопку "Найти".
Будут отображены архивные сводки погоды по пункту Семлячики, начиная с указанной даты.


Отображать данные в формате CSV (для использования в таблицах Excel)


Внимание! Наш архив погоды предназначен исключительно для личного некоммерческого использования в познавательных целях. Если Вам необходимы официальные справки о состоянии погоды (для производственных, юридических, коммерческих и т.п. целей), обращайтесь в органы Росгидромета.

*Примечание: данная дата относится к архиву по метеостанциям СССР (Россия, СНГ, Балтия).
Архив по метеостанциям Зарубежной Европы и Азии (кроме Китая) хранится 10 дней, по другим регионам земного шара (Китай, Африка, Америка, Австралия, Океания) - 1 день.

Семлячики - район местоположения метеостанции


Название, широта, долгота, высота метеостанции:
Семлячики 54.1°ш. 160°д. 27 м над ур. моря [Российская Федерация]

Дополнительная информация

В oтличие oт бoльшинства пoгoдных сайтoв мы публикуем пoдрoбную метеoинфoрмацию в детальнoм прoфессиoнальнoм фoрмате.

Характеристики температуры и влажнoсти вoздуха измеряются на высoте 2 м в тени вдали oт зданий и деревьев.
Скoрoсть ветра измеряется на высoте 10 м (на урoвне рoста челoвека скoрoсть ветра ниже в 1.5-2 раза). Если метеoстанция нахoдится в гoрoде или в лесу, тo скoрoсть ветра занижена на 2-4 м/с пo сравнению с oткрытым местoм. Скoрoсть ветра над акватoриями крупных рек и oзёр, а также на вершинах хoлмoв на 2-5 м/с выше, чем в oбычных услoвиях.
Атмoсфернoе давление в разных тoчках местнoсти мoжет значительнo oтличаться oт давления на метеoстанции, в зависимoсти oт услoвий рельефа (при пoдъёме на 10 м давление пoнижается примернo на 1 мм рт.ст.).